Location: Avon Lake
(41.5219°N, 93.5010°W)
Time: 13:42:41
(UTC+00:00)

BlueWalker 3 - Pass Details

Date: 11 December 2022
Orbit: 499 x 517 km, 53.2° (Epoch: 01 February)

Event Time Altitude Azimuth Distance (km) Brightness Sun altitude
Rises 00:48:50 0° 304° (WNW) 2,622 6.3 -22.6°
Reaches altitude 10° 00:51:06 10° 298° (WNW) 1,729 5.3 -23.0°
Maximum altitude 00:54:50 45° 225° (SW) 693 2.9 -23.7°
Enters shadow 00:55:37 39° 189° (S) 767 2.9 -23.8°
